ARIANE 5 R/B, 41946

Orbit data source: Space-Track

ARIANE 5 R/B, 41946 is space debris in HEO originally from a launch on Tue, 14 Feb 2017 UTC launched from the French Guiana (FRGUI). Debris objects in space refer to the collection of defunct objects orbiting the Earth. Examples of debris include non-operational satellites, rocket bodies, and fragments generated from explosions, collisions, or faulty payload assembly.

Loading next visibility...
ARIANE 5 R/B details
Identifier
41946, 2017-007C
Orbit
HEO
Last TLE update17 hours ago
Origin
Flag of FRArianespace (FR)
ManufacturerAirbus Safran
MissionSpacecraft
Bus & MotorESC-A, Unknown motor
Mass~5,000 kg wet, ~5,000 kg dry
Launch date (UTC)
2017-02-14 (8 years ago)
Launch vehicleUnknown
Launch site
French Guiana (FRGUI)
Object type
Payload
Rocket body
Debris
Shape & HBRCyl + 1 Nozzle, 7 m
Radar Cross Section41.627 m², Large (>1 m²)

Expand to show TLE details & history

TLE from 17 hours ago
0 ARIANE 5 R/B
1 41946U 17007C   24360.91641900  .00003381  00000-0  13903-2 0  9997
2 41946   3.4095 159.7218 7190406  71.1088 349.8068  2.38486846 66483
Epoch: 2024-12-25T21:59Z
Definitive object data (Epoch: 2024-12-25T21:59:38.601Z)
Latitude0.00002°
Longitude94.49527°
Altitude2,927.392 km
Speed8.295 km/s
True Right ascension10h 37m 14s
True Declination0° 00' 00"
Sunlit
Object was in daylight at TLE epoch
Visualization TLE readout
Latitude-3.38008°
Longitude-1.52246°
Altitude32,114.612 km
Speed1.966 km/s
Apparent Right ascension03h 59m 28s
Apparent Declination-8° 26' 43"
Sunlit
Object is in daylight
Visualization observer readout
Local Sidereal Time14:07:47
Azimuth314.057° NW
Elevation-49.871°
Doppler factor1
Orbital elements
Apogee altitude34,311.128 km
Perigee altitude272.102 km
Semi-major axis23,669.752 km
Eccentricity0.7190406
Inclination3.4095°
RAAN159.7218°
Arg. of periapsis71.1088°
True anomaly289.19226°
Mean anomaly349.8068°
Eccentric anomaly327.93646°
Mean motion0.59601 °/min
BSTAR0.0013903
Orbital period604.02 mins
Loading maneuver chart data...
Loading historical data...
Loading historical data...
Loading historical data...
Loading historical data...
Loading historical data...
Loading historical data...
Loading historical data...
Other satellites on launch #7 in the year 2017 (2017-02-14 UTC)

ARIANE 5 R/B Visibility forecast

Observer location: undefined°, undefined

Span
Click to sort rows by Start time (UTC) header in descending order
Start Az.
Max El. time (UTC)
Max El. Az.
Max El.
End time (UTC)
End Az.
123 mins2024-12-27 00:40:53.835Z112.143° ESE2024-12-27 01:52:53.835Z116.348° SE12.377°2024-12-27 02:43:53.835Z116.292° SE
|